EW4324 Weather Reports


time (UTC)temp
C
wind
direction
speed
KPH
gust
KPH
rain 1hr
cm
rain 24hr
cm
rain mn
cm
humidity
%
barometer
mb
20260507010903 14 206 6.4 16.1 0.00 0.13 0.13 95 1006.4
20260507010213 14 205 6.4 16.1 0.00 0.13 0.13 95 1006.3
20260507005403 14 205 8.0 19.3 0.00 0.13 0.13 95 1006.3
20260507004503 14 226 6.4 17.7 0.00 0.13 0.13 95 1006.3
20260507003603 14 214 4.8 14.5 0.00 0.13 0.13 95 1006.2
20260507002913 14 211 6.4 19.3 0.00 0.13 0.13 95 1006.2
20260507001803 14 212 4.8 12.9 0.00 0.13 0.13 95 1006.3
20260507000903 14 218 6.4 12.9 0.00 0.13 0.13 95 1006.1
20260507000004 14 218 4.8 14.5 0.03 0.13 0.13 96 1006.0
20260506235612 14 221 4.8 12.9 0.03 0.13 0.13 96 1006.0
20260506234714 14 209 6.4 17.7 0.03 0.13 0.13 96 1006.0
20260506233603 14 189 3.2 11.3 0.03 0.13 0.13 96 1005.9
20260506232703 14 182 3.2 11.3 0.03 0.13 0.13 96 1005.9
20260506231803 14 183 3.2 9.7 0.03 0.13 0.13 96 1005.9
20260506230903 14 180 4.8 12.9 0.03 0.13 0.13 96 1005.8
20260506230003 14 188 3.2 11.3 0.00 0.10 0.10 96 1005.8
20260506225403 14 179 4.8 12.9 0.00 0.10 0.10 96 1005.8
20260506224503 14 181 4.8 12.9 0.00 0.10 0.10 95 1006.0
20260506223603 14 179 3.2 11.3 0.00 0.10 0.10 95 1006.0
20260506222703 14 190 3.2 14.5 0.00 0.10 0.10 95 1006.1
20260506221803 14 175 3.2 11.3 0.00 0.10 0.10 95 1006.1
20260506220903 14 173 4.8 16.1 0.00 0.10 0.10 95 1006.3
20260506220005 14 180 4.8 14.5 0.00 0.10 0.10 95 1006.2
20260506215403 14 174 3.2 14.5 0.00 0.10 0.10 95 1006.3
20260506214503 14 182 4.8 14.5 0.03 0.10 0.10 95 1006.3
20260506213603 14 160 4.8 14.5 0.03 0.10 0.10 95 1006.3
20260506212703 14 190 4.8 12.9 0.03 0.10 0.10 94 1006.4
20260506211803 14 167 4.8 14.5 0.03 0.10 0.10 94 1006.4
20260506210903 14 195 4.8 12.9 0.03 0.10 0.10 94 1006.5
20260506210214 14 182 3.2 11.3 0.03 0.10 0.10 94 1006.6
20260506205613 14 174 3.2 14.5 0.05 0.10 0.10 94 1006.5
20260506204713 14 184 4.8 17.7 0.03 0.08 0.08 94 1006.7
20260506203814 14 183 4.8 12.9 0.03 0.08 0.08 94 1006.9
20260506202703 14 185 6.4 22.5 0.03 0.08 0.08 94 1007.0
20260506202013 14 186 4.8 11.3 0.03 0.08 0.08 94 1007.0
20260506200903 14 176 6.4 16.1 0.05 0.08 0.08 93 1007.0
20260506200004 15 169 4.8 16.1 0.05 0.08 0.08 93 1007.0
20260506195403 15 177 4.8 16.1 0.03 0.05 0.05 93 1007.1
20260506194503 15 183 9.7 22.5 0.03 0.05 0.05 92 1007.2
20260506193603 15 179 8.0 22.5 0.03 0.05 0.05 92 1007.2
20260506192703 15 172 9.7 27.4 0.03 0.05 0.05 91 1007.1
20260506191803 15 182 6.4 24.1 0.05 0.05 0.05 91 1007.2
20260506190903 15 192 6.4 16.1 0.03 0.03 0.03 91 1007.2
20260506190003 15 193 6.4 19.3 0.03 0.03 0.03 90 1007.3
20260506185403 15 176 6.4 24.1 0.03 0.03 0.03 90 1007.2
20260506184503 16 173 4.8 14.5 0.03 0.03 0.03 90 1007.1
20260506183603 16 197 6.4 20.9 0.03 0.03 0.03 88 1007.4
20260506182912 16 194 4.8 20.9 0.03 0.03 0.03 86 1007.5
20260506181803 16 205 4.8 16.1 0.00 0.00 0.00 85 1007.9
20260506180903 17 214 4.8 16.1 0.00 0.00 0.00 82 1007.7
20260506180003 17 207 9.7 25.7 0.00 0.00 0.00 78 1008.0
20260506175403 18 217 12.9 25.7 0.00 0.00 0.00 74 1008.1
20260506174503 18 222 11.3 33.8 0.00 0.00 0.00 70 1008.1
20260506173603 20 204 8.0 33.8 0.00 0.00 0.00 65 1007.9
20260506172703 20 198 8.0 27.4 0.00 0.00 0.00 64 1007.8
20260506171803 20 181 11.3 33.8 0.00 0.00 0.00 62 1007.6
20260506170903 21 182 8.0 24.1 0.00 0.00 0.00 62 1007.7
20260506170004 20 213 9.7 35.4 0.00 0.00 0.00 61 1007.7
20260506165403 20 204 11.3 35.4 0.00 0.00 0.00 61 1007.7
20260506164503 21 187 11.3 32.2 0.00 0.00 0.00 60 1007.9
20260506163812 21 187 8.0 30.6 0.00 0.00 0.00 61 1007.8
20260506162703 20 196 8.0 27.4 0.00 0.00 0.00 62 1008.0
20260506162013 20 189 8.0 22.5 0.00 0.00 0.00 63 1008.2
20260506160903 20 202 9.7 25.7 0.00 0.00 0.00 63 1008.2
20260506160003 20 209 8.0 25.7 0.00 0.00 0.00 64 1008.6
20260506155613 20 209 8.0 25.7 0.00 0.00 0.00 64 1008.6
20260506154503 20 187 8.0 27.4 0.00 0.00 0.00 63 1008.9
20260506153603 20 197 6.4 25.7 0.00 0.00 0.00 65 1008.9
20260506152913 20 214 8.0 27.4 0.00 0.00 0.00 65 1008.9
20260506151803 20 203 8.0 17.7 0.00 0.00 0.00 65 1009.1
20260506150903 20 186 4.8 16.1 0.00 0.00 0.00 66 1009.3
20260506150003 20 201 8.0 24.1 0.00 0.00 0.00 66 1009.4
20260506145403 20 190 8.0 24.1 0.00 0.00 0.00 67 1009.4
20260506144503 20 170 4.8 14.5 0.00 0.00 0.00 70 1009.3
20260506143603 19 184 6.4 22.5 0.00 0.00 0.00 69 1009.5
20260506142913 19 190 8.0 25.7 0.00 0.00 0.00 70 1009.5
20260506141803 18 202 8.0 19.3 0.00 0.00 0.00 71 1009.4
20260506140903 18 211 6.4 20.9 0.00 0.00 0.00 72 1009.4
20260506140003 18 195 8.0 20.9 0.00 0.00 0.00 72 1009.2
20260506135613 18 189 8.0 24.1 0.00 0.00 0.00 72 1009.1
20260506134503 18 184 6.4 14.5 0.00 0.00 0.00 73 1009.3
20260506133603 18 179 4.8 16.1 0.00 0.00 0.00 74 1009.3
20260506132703 18 172 6.4 14.5 0.00 0.00 0.00 74 1009.4
20260506132014 17 180 6.4 19.3 0.00 0.00 0.00 74 1009.5
20260506130904 17 209 8.0 19.3 0.00 0.00 0.00 76 1009.9
20260506130003 17 195 6.4 16.1 0.00 0.00 0.00 77 1010.0
20260506125403 17 210 6.4 16.1 0.00 0.00 0.00 77 1010.0
20260506124503 17 195 6.4 22.5 0.00 0.00 0.00 78 1009.9
20260506123813 17 196 6.4 22.5 0.00 0.00 0.00 78 1009.9
20260506122703 17 202 6.4 17.7 0.00 0.00 0.00 78 1009.8
20260506121803 16 190 8.0 27.4 0.00 0.00 0.00 79 1009.6
20260506120903 16 216 8.0 27.4 0.00 0.00 0.00 80 1010.0
20260506120003 16 209 8.0 24.1 0.00 0.00 0.00 80 1009.9
20260506115403 16 207 8.0 24.1 0.00 0.00 0.00 79 1009.8
20260506114503 16 212 6.4 20.9 0.00 0.00 0.00 80 1009.7
20260506113603 15 201 4.8 14.5 0.00 0.00 0.00 81 1010.0
20260506112914 15 208 4.8 12.9 0.00 0.00 0.00 82 1010.1
20260506112013 15 196 6.4 22.5 0.00 0.00 0.00 82 1010.1
20260506110903 15 213 6.4 17.7 0.00 0.00 0.00 82 1010.4
20260506110003 15 199 8.0 16.1 0.00 0.00 0.00 83 1010.2
20260506105403 15 193 6.4 16.1 0.00 0.00 0.00 83 1010.0
20260506104713 14 183 6.4 16.1 0.00 0.00 0.00 83 1010.1
20260506103812 14 211 6.4 17.7 0.00 0.00 0.00 83 1010.2
20260506102703 14 195 3.2 12.9 0.00 0.00 0.00 84 1010.1
20260506102013 14 185 4.8 14.5 0.00 0.00 0.00 83 1009.9
20260506100903 14 192 6.4 17.7 0.00 0.00 0.00 83 1010.0
20260506100003 14 198 4.8 16.1 0.00 0.00 0.00 83 1010.0
20260506095615 14 193 4.8 17.7 0.00 0.00 0.00 83 1010.0
20260506094506 14 184 4.8 20.9 0.00 0.00 0.00 82 1009.9
20260506093603 14 189 4.8 16.1 0.00 0.00 0.00 82 1010.0
20260506092703 14 204 3.2 12.9 0.00 0.00 0.00 82 1009.8
20260506091803 14 196 3.2 12.9 0.00 0.00 0.00 81 1009.8
20260506090903 14 187 4.8 16.1 0.00 0.00 0.00 81 1009.9
20260506090213 14 178 4.8 16.1 0.00 0.00 0.00 81 1010.0
20260506085403 14 211 4.8 16.1 0.00 0.00 0.00 80 1010.0
20260506084503 15 198 4.8 17.7 0.00 0.00 0.00 80 1010.0
20260506083603 15 207 4.8 11.3 0.00 0.00 0.00 80 1010.1
20260506082703 15 206 3.2 12.9 0.00 0.00 0.00 80 1010.1
20260506081803 15 201 3.2 9.7 0.00 0.00 0.00 79 1010.1
20260506080903 15 216 4.8 14.5 0.00 0.00 0.00 79 1010.1
20260506072703 15 190 4.8 14.5 0.00 0.00 0.00 77 1010.1
20260506071803 15 204 4.8 16.1 0.00 0.00 0.00 76 1010.0
20260506070903 15 204 4.8 16.1 0.00 0.00 0.00 76 1009.9
20260506070212 15 190 6.4 16.1 0.00 0.00 0.00 75 1009.9
20260506062013 16 213 4.8 17.7 0.00 0.00 0.00 72 1009.8
20260506060903 16 208 6.4 19.3 0.00 0.00 0.00 71 1009.7
20260506050903 17 199 8.0 20.9 0.00 0.00 0.00 67 1010.0
20260506044503 17 203 8.0 22.5 0.00 0.00 0.00 65 1010.1
20260506043603 17 201 6.4 27.4 0.00 0.00 0.00 65 1010.0
20260506042703 17 204 8.0 19.3 0.00 0.00 0.00 65 1010.0
20260506041803 17 201 8.0 30.6 0.00 0.00 0.00 65 1010.1
20260506040903 17 197 6.4 27.4 0.00 0.00 0.00 65 1010.0
20260506040005 17 209 9.7 25.7 0.00 0.00 0.00 64 1010.1
20260506035403 17 215 9.7 30.6 0.00 0.00 0.00 65 1010.1
20260506034503 17 220 6.4 14.5 0.00 0.00 0.00 65 1010.2
20260506033603 17 201 6.4 22.5 0.00 0.00 0.00 65 1010.1
20260506032703 17 209 8.0 22.5 0.00 0.00 0.00 65 1010.0
20260506032014 17 222 6.4 22.5 0.00 0.00 0.00 65 1010.0
20260506030903 17 197 8.0 20.9 0.00 0.00 0.00 64 1010.1
20260506030004 17 207 6.4 17.7 0.00 0.00 0.00 64 1010.1
20260506025403 17 208 4.8 14.5 0.00 0.00 0.00 63 1010.0
20260506024503 17 199 6.4 17.7 0.00 0.00 0.00 63 1010.0
20260506023603 17 204 4.8 17.7 0.00 0.00 0.00 62 1009.9
20260506022912 17 200 4.8 22.5 0.00 0.00 0.00 62 1009.9
20260506021803 17 185 6.4 24.1 0.00 0.00 0.00 61 1010.0
20260506020903 17 209 6.4 19.3 0.00 0.00 0.00 61 1009.9
20260506020004 17 202 4.8 14.5 0.00 0.00 0.00 62 1010.0
20260506015403 17 222 4.8 14.5 0.00 0.00 0.00 62 1009.9
20260506014503 18 214 4.8 20.9 0.00 0.00 0.00 61 1009.8
20260506013603 18 200 4.8 16.1 0.00 0.00 0.00 60 1009.7
20260506012703 18 206 3.2 14.5 0.00 0.00 0.00 60 1009.5
20260506011803 18 199 6.4 20.9 0.00 0.00 0.00 59 1009.3